Regional Weather Roundup
Issued by NWS

Home | Current Version | Previous Version | Graphics & Text | Print | Product List | Glossary On
Versions: 1 2 3 4 5 6 7 8 9 10 11 12 13 14 15 16 17 18 19 20 21 22 23 24 25 26 27
000
ASUS45 KBOU 251807
RWRCO

WEATHER ROUNDUP FOR COLORADO
NATIONAL WEATHER SERVICE DENVER/BOULDER CO
1200 PM MDT WED MAY 25 2016

NOTE: "FAIR" INDICATES FEW OR NO CLOUDS BELOW 12000 FEET WITH NO
SIGNIFICANT WEATHER AND/OR OBSTRUCTIONS TO VISIBILITY.

COZ001>005-013-030-031-251900-
...NORTHWEST COLORADO...

CITY           SKY/WX    TMP DP  RH WIND       PRES   REMARKS
CRAIG          FAIR      63  29  27 W15G23    30.06F
HAYDEN         FAIR      59  30  33 W12       30.08R
MEEKER         PTSUNNY   63  21  20 SW20G28   30.07S
MOUNT WERNER   NOT AVBL
STEAMBOAT SPGS FAIR      56  26  31 SW13G18   30.08S
WALDEN         FAIR      54  21  28 SW18G26   30.11F
$$

COZ006>008-011-251900-
...WEST CENTRAL VALLEYS...

CITY           SKY/WX    TMP DP  RH WIND       PRES   REMARKS
GRAND JUNCTION FAIR      66  26  22 VRB5      30.03F
MONTROSE       FAIR      68  13  12 SW9G20    30.08F
EAGLE          MOSUNNY   64  19  17 SW10G26   30.09S
RIFLE          FAIR      66  24  20 W17G26    30.04F
DELTA          FAIR      71  19  14 CALM      30.05F
NUCLA          FAIR      66  18  15 W13G18    30.13S
$$

COZ017>023-064>068-251900-
...SOUTHWEST COLORADO...

CITY           SKY/WX    TMP DP  RH WIND       PRES   REMARKS
DURANGO        FAIR      63  21  20 S5        30.15F
CORTEZ         FAIR      67  20  16 SW15      30.12S
PAGOSA SPRINGS FAIR      59   8  13 W3G16     30.21S
TELLURIDE      FAIR      55   6  13 W14G24    30.22S
WOLF CREEK PAS FAIR      36  12  38 SW17G32   30.38R
$$

COZ009-010-012-014-032>034-037-058>063-251900-
...CENTRAL COLORADO...

CITY           SKY/WX    TMP DP  RH WIND       PRES   REMARKS
ASPEN          FAIR      59  10  14 W13G24    30.13R
BUENA VISTA    FAIR      61   2   9 W17G28    30.14R
COPPER MTN     NOT AVBL
BERTHOUD PASS  FAIR      34  27  75 W17G36    30.30R WCI  23
COTTONWOOD PAS FAIR      52 -11   7 SW20G31   30.23R
GUNNISON       FAIR      59  10  14 W10G21    30.16S
KREMMLING      FAIR      61  10  13 W24G33    30.11S
LEADVILLE      FAIR      49  -3  11 SW13G26   30.20S
MONARCH PASS   FAIR      37  14  38 W21G26    30.42R
SALIDA         FAIR      64   8  11 W12G17    30.18F
SUNLIGHT       PTSUNNY   43  21  42 CALM      30.28R
WILKERSON PASS FAIR      48   1  14 SW12G22   30.28S
$$

COZ069>075-251900-
...SAN LUIS VALLEY/SANGRE DE CRISTO MOUNTAINS...

CITY           SKY/WX    TMP DP  RH WIND       PRES   REMARKS
ALAMOSA        FAIR      64  10  12 SE7       30.14F
LA VETA PASS   FAIR      54   9  16 S14G26    30.25S
SAGUACHE       FAIR      61  12  15 S14G22    30.14F
$$

COZ035-036-038>040-251900-
...NORTHERN COLORADO FRONT RANGE...

CITY           SKY/WX    TMP DP  RH WIND       PRES   REMARKS
DENVER INTL AP FAIR      66  44  45 E12       30.01F
DMNS CITY PARK   N/A     67  37  33 E14G23    30.00S
AURORA         MOSUNNY   67  41  38 VRB7      30.02F
FRONT RANGE AP MOSUNNY   64  41  42 E10       30.02F
ERIE MUNI ARPT CLOUDY    64  41  42 SE12      30.00F
BOULDER MUN AP FAIR      61  37  41 CALM      30.01S
CENTENNIAL     FAIR      66  34  30 SE10      30.02F
BROOMFIELD     MOSUNNY   66  41  39 CALM      30.04S
FORT COLLINS   FAIR      64  46  52 S12       30.00F
LONGMONT       FAIR      69  38  31 SE9G17    30.01F
$$

COZ041-046-047-076>085-087-088-251900-
...PIKES PEAK/PALMER DIVIDE AND SOUTHERN FOOTHILLS...

CITY           SKY/WX    TMP DP  RH WIND       PRES   REMARKS
COLO. SPRINGS  FAIR      70  19  14 E13G20    30.03F
A. F. ACADEMY  FAIR      70  19  14 S9        30.02F
SCHRIEVER AFB  NOT AVBL
ELLICOTT       FAIR     N/A N/A N/A VRB7G18   30.03F
FALCON         FAIR      67  19  16 SE6G23    30.07F
FORT CARSON    FAIR      71  23  16 SE8       29.99F
LIMON          FAIR      67  49  52 VRB6      30.02S
MONUMENT HILL  FAIR      61  34  36 NE12G17   30.08F
TRINIDAD       FAIR      74   9   8 MISG      30.03F
$$

COZ042>045-048>051-090-091-251900-
...NORTHEAST COLORADO...

CITY           SKY/WX    TMP DP  RH WIND       PRES   REMARKS
GREELEY ARPT   FAIR      70  46  43 SE12      30.00F
AKRON          FAIR      67  51  56 VRB6      30.00S
BURLINGTON     PTSUNNY   68  53  58 VRB5      29.98R
WRAY           NOT AVBL
STERLING       FAIR      68  55  64 S6        29.96F
HOLYOKE        FAIR      73  54  49 CALM      29.96S
FORT MORGAN    FAIR      66  49  53 CALM      30.00S
$$

COZ086-089-092>099-251900-
...SOUTHEAST COLORADO...

CITY           SKY/WX    TMP DP  RH WIND       PRES   REMARKS
PUEBLO         FAIR      78  29  16 S15G23    29.96F
LA JUNTA       FAIR      77  39  25 VRB3      29.97F
LAMAR          FAIR      75  51  43 N5        29.94S
SPRINGFIELD      N/A     78  23  13 W9G16     29.97S
$$




USA.gov is the U.S. government's official web portal to all federal, state and local government web resources and services.